Meteo Giornale » Osservazioni meteo Gran Bretagna » Middle Wallop

ore: 22:50 - Osservazioni Meteo Middle Wallop
Lat. 51° 9' N Lon. 1° 34' W Alt. 91 metri s.l.m.

sereno

16 °C

Sereno

Temp. 24 Ore

10 °C

22 °C

Nord

3.7 Km/h

Dew point 13 °C

Umidità 82 %

Visibilità  10 Km

Il sole sorge alle ore 06:19

Il sole tramonta alle ore 19:52

Data e Ora Cielo e Fenomeni T °C DP °C Um. % Pres. hPa Vis. km Vento km/h
Oggi h: 22:50 sereno Sereno 16 13 82 1020 10 N 3.7
Oggi h: 22:20 sereno Sereno 16 13 82 1021 10 N 5.5
Oggi h: 21:50 coperto Coperto 17 13 77 1020 10 N 5.5
Oggi h: 21:20 coperto Coperto 17 13 77 1021 10 O 9.3
Oggi h: 20:50 molto_nuvoloso Pioggia nelle vicinanze 17 13 77 1020 10 O/SO 7.4
Oggi h: 20:20 molto_nuvoloso Molto Nuvoloso 17 13 77 1020 10 O/SO 11.1
Oggi h: 19:50 molto_nuvoloso Pioggia nelle vicinanze 17 12 72 1020 10 SO 14.8
Oggi h: 19:20 molto_nuvoloso Pioggia nelle vicinanze 18 12 67 1020 10 O/SO 9.3
Oggi h: 18:50 molto_nuvoloso Pioggia nelle vicinanze 18 12 67 1020 10 O/SO 7.4
Oggi h: 18:20 molto_nuvoloso Pioggia nelle vicinanze 18 12 67 1020 10 O/SO 11.1
Oggi h: 17:50 nuvoloso_piovaschi Pioggia 19 11 59 1020 10 SO 18.5
Oggi h: 17:20 molto_nuvoloso Molto Nuvoloso 20 11 56 1020 10 O/SO 18.5
Oggi h: 16:50 sereno Sereno 20 10 52 1020 10 O 14.8
Oggi h: 16:20 sereno Sereno 21 10 49 1020 10 O 11.1
Oggi h: 15:50 sereno Sereno 20 9 49 1020 10 O/NO 13
Oggi h: 15:20 sereno Sereno 21 8 43 1020 10 O/SO 13
Oggi h: 14:50 sereno Sereno 22 7 37 1020 10 SO 13
Oggi h: 14:20 sereno Sereno 22 7 37 1020 10 SO 14.8
Oggi h: 13:50 sereno Sereno 22 9 43 1020 10 SO 14.8
Oggi h: 13:20 poco_nuvoloso Poco Nuvoloso 21 8 43 1020 10 O/SO 13
Oggi h: 12:50 poco_nuvoloso Poco Nuvoloso 21 8 43 1021 10 SO 20.3
Oggi h: 12:20 poco_nuvoloso Poco Nuvoloso 19 9 52 1021 10 O 13
Oggi h: 11:50 poco_nuvoloso Poco Nuvoloso 19 10 55 1021 10 O 13
Oggi h: 11:20 nuvoloso Nuvoloso 19 12 63 1021 10 S/SO 13
Oggi h: 10:50 molto_nuvoloso Molto Nuvoloso 17 12 72 1021 10 SO 9.3
Oggi h: 10:20 nuvoloso Nuvoloso 16 12 77 1021 10 O 7.4
Oggi h: 09:50 molto_nuvoloso Molto Nuvoloso 15 12 82 1021 10 N 1.8
Oggi h: 09:20 molto_nuvoloso Molto Nuvoloso 14 12 87 1021 10 N 1.8
Oggi h: 08:50 molto_nuvoloso Molto Nuvoloso 13 11 87 1021 10 N 3.7
Oggi h: 08:20 molto_nuvoloso Molto Nuvoloso 12 10 87 1021 10 N 3.7
Oggi h: 07:50 molto_nuvoloso Molto Nuvoloso 11 10 93 1021 10 N 3.7
Oggi h: 07:20 molto_nuvoloso Molto Nuvoloso 12 10 87 1021 10 N 1.8
Oggi h: 06:50 molto_nuvoloso Molto Nuvoloso 11 9 87 1020 10 N 3.7
Oggi h: 06:20 coperto Coperto 11 9 87 1020 10 N 3.7
Oggi h: 05:50 nebbia Nebbia 11 9 87 1020 10 N 1.8
Oggi h: 05:20 molto_nuvoloso Molto Nuvoloso 11 9 87 1020 10 N 1.8
Oggi h: 04:50 poco_nuvoloso Poco Nuvoloso 10 9 93 1020 10 N 3.7
Oggi h: 04:20 sereno Sereno 11 9 87 1020 10 N 3.7
Oggi h: 03:50 sereno Sereno 12 9 81 1020 10 N 1.8
Oggi h: 03:20 sereno Sereno 12 10 87 1020 10 N 1.8
Oggi h: 02:50 poco_nuvoloso Poco Nuvoloso 12 10 87 1020 10 N 1.8
Oggi h: 02:20 coperto Coperto 12 10 87 1020 10 N 5.5
Oggi h: 01:50 molto_nuvoloso Molto Nuvoloso 13 10 81 1020 10 N 5.5
Oggi h: 01:20 poco_nuvoloso Poco Nuvoloso 13 10 81 1020 10 N 5.5
Oggi h: 00:50 molto_nuvoloso Molto Nuvoloso 13 10 81 1020 10 O 7.4
Oggi h: 00:20 poco_nuvoloso Poco Nuvoloso 13 10 81 1019 10 O 7.4
Ieri h: 23:50 nuvoloso Nuvoloso 14 10 76 1020 10 O 9.3